This is the latest recevied weather packets stored in our database for station/object HK6LRQ-26. If no packets are shown the sender has not sent any weather packets the latest 10 day(s).
| Time | Temp. | Humidity | Pressure | Rain* | Wind** | Luminosity | Snow |
|---|---|---|---|---|---|---|---|
| 1778027697 | 20° C | 82% | 1014 hPa | 0 mm | - | - | - |
| 1778025896 | 20° C | 82% | 1013 hPa | 0 mm | - | - | - |
| 1778024095 | 20° C | 82% | 1013 hPa | 0 mm | - | - | - |
| 1778022294 | 20° C | 82% | 1011 hPa | 0 mm | - | - | - |
| 1778020493 | 20° C | 82% | 1011 hPa | 0 mm | - | - | - |
| 1778018692 | 20.56° C | 83% | 1010 hPa | 0 mm | - | - | - |
| 1778016891 | 20.56° C | 83% | 1010 hPa | 0 mm | - | - | - |
| 1778015090 | 21.11° C | 83% | 1010 hPa | 0 mm | - | - | - |
| 1778013289 | 21.11° C | 83% | 1010 hPa | 0 mm | - | - | - |
| 1778011488 | 21.67° C | 83% | 1010 hPa | 0 mm | - | - | - |
| 1778009687 | 21.67° C | 83% | 1010 hPa | 0 mm | - | - | - |
| 1778007885 | 21.67° C | 83% | 1011 hPa | 0 mm | - | - | - |
| 1778006084 | 21.67° C | 84% | 1011 hPa | 0 mm | - | - | - |
| 1778004283 | 21.67° C | 84% | 1013 hPa | 0 mm | - | - | - |
| 1778002482 | 20° C | 92% | 1013 hPa | 0 mm | - | - | - |
| 1778000681 | 20° C | 93% | 1014 hPa | 0 mm | - | - | - |
| 1777998880 | 20° C | 94% | 1014 hPa | 0 mm | - | - | - |
| 1777997079 | 20° C | 94% | 1015 hPa | 0 mm | - | - | - |
| 1777995278 | 18.89° C | 99% | 1015 hPa | 0 mm | - | - | - |
| 1777993477 | 18.89° C | 10% | - | 0 mm | - | - | - |
| 1777991676 | 18.33° C | 10% | - | 0 mm | - | - | - |
| 1777989875 | 16.67° C | 10% | - | 0 mm | - | - | - |
| 1777988074 | 16.67° C | 95% | 1016 hPa | 0 mm | - | - | - |
| 1777986273 | 16.67° C | 94% | 1016 hPa | 0 mm | - | - | - |
| 1777984472 | 15° C | 96% | 1016 hPa | 0 mm | - | - | - |
* Rain latest hour (hover to see other rain measurements)
** Current wind speed in m/s (hover to see current wind gust speed)